Zeit;wasserstand;wasserstand_status;abfluss;abfluss_status
1995-03-01 00:00:00;43.0;0;0.4262;0
1995-03-02 00:00:00;36.0;0;0.3213;0
1995-03-03 00:00:00;31.0;0;0.2551;0
1995-03-04 00:00:00;30.0;0;0.2343;0
1995-03-05 00:00:00;28.0;0;0.2116;0
1995-03-06 00:00:00;37.0;0;0.3053;0
1995-03-07 00:00:00;36.0;0;0.2984;0
1995-03-08 00:00:00;30.0;0;0.2152;0
1995-03-09 00:00:00;27.0;0;0.1807;0
1995-03-10 00:00:00;26.0;0;0.1691;0
1995-03-11 00:00:00;23.0;0;0.1372;0
1995-03-12 00:00:00;21.0;0;0.1159;0
1995-03-13 00:00:00;21.0;0;0.1217;0
1995-03-14 00:00:00;22.0;0;0.1306;0
1995-03-15 00:00:00;22.0;0;0.1269;0
1995-03-16 00:00:00;22.0;0;0.1269;0
1995-03-17 00:00:00;24.0;0;0.141;0
1995-03-18 00:00:00;26.0;0;0.1661;0
1995-03-19 00:00:00;29.0;0;0.1943;0
1995-03-20 00:00:00;31.0;0;0.2179;0
1995-03-21 00:00:00;33.0;0;0.2445;0
1995-03-22 00:00:00;36.0;0;0.2773;0
1995-03-23 00:00:00;33.0;0;0.2452;0
1995-03-24 00:00:00;30.0;0;0.2142;0
1995-03-25 00:00:00;39.0;0;0.3273;0
1995-03-26 00:00:00;37.0;0;0.3112;0
1995-03-27 00:00:00;49.0;0;0.4786;0
1995-03-28 00:00:00;46.0;0;0.4561;0
1995-03-29 00:00:00;44.0;0;0.4282;0
1995-03-30 00:00:00;44.0;0;0.4444;0
1995-03-31 00:00:00;49.0;0;0.5169;0
1995-04-01 00:00:00;53.0;0;0.5873;0
1995-04-02 00:00:00;47.0;0;0.5069;0
1995-04-03 00:00:00;37.0;0;0.3569;0
1995-04-04 00:00:00;35.0;0;0.3189;0
1995-04-05 00:00:00;32.0;0;0.2802;0
1995-04-06 00:00:00;31.0;0;0.2644;0
1995-04-07 00:00:00;33.0;0;0.2825;0
1995-04-08 00:00:00;34.0;0;0.2874;0
1995-04-09 00:00:00;27.0;0;0.195;0
1995-04-10 00:00:00;27.0;0;0.1955;0
1995-04-11 00:00:00;26.0;0;0.1803;0
1995-04-12 00:00:00;24.0;0;0.1524;0
1995-04-13 00:00:00;23.0;0;0.1369;0
1995-04-14 00:00:00;22.0;0;0.1223;0
1995-04-15 00:00:00;23.0;0;0.1303;0
1995-04-16 00:00:00;28.0;0;0.1767;0
1995-04-17 00:00:00;28.0;0;0.1774;0
1995-04-18 00:00:00;34.0;0;0.2298;0
1995-04-19 00:00:00;34.0;0;0.2327;0
1995-04-20 00:00:00;36.0;0;0.246;0
1995-04-21 00:00:00;31.0;0;0.1998;0
1995-04-22 00:00:00;26.0;0;0.1472;0
1995-04-23 00:00:00;24.0;0;0.1309;0
1995-04-24 00:00:00;22.0;0;0.1181;0
1995-04-25 00:00:00;21.0;0;0.1092;0
1995-04-26 00:00:00;20.0;0;0.1018;0
1995-04-27 00:00:00;20.0;0;0.1069;0
1995-04-28 00:00:00;19.0;0;0.1009;0
1995-04-29 00:00:00;17.0;0;0.0887;0
1995-04-30 00:00:00;16.0;0;0.0812;0
1995-05-01 00:00:00;16.0;0;0.0775;0
1995-05-02 00:00:00;16.0;0;0.0772;0
1995-05-03 00:00:00;15.0;0;0.0752;0
1995-05-04 00:00:00;16.0;0;0.0801;0
1995-05-05 00:00:00;16.0;0;0.0769;0
1995-05-06 00:00:00;15.0;0;0.0709;0
1995-05-07 00:00:00;14.0;0;0.0675;0
1995-05-08 00:00:00;15.0;0;0.0759;0
1995-05-09 00:00:00;16.0;0;0.0827;0
1995-05-10 00:00:00;14.0;0;0.0626;0
1995-05-11 00:00:00;15.0;0;0.0685;0
1995-05-12 00:00:00;15.0;0;0.0628;0
1995-05-13 00:00:00;14.0;0;0.0554;0
1995-05-14 00:00:00;15.0;0;0.0582;0
1995-05-15 00:00:00;15.0;0;0.054;0
1995-05-16 00:00:00;16.0;0;0.0538;0
1995-05-17 00:00:00;18.0;0;0.0675;0
1995-05-18 00:00:00;28.0;0;0.1359;0
1995-05-19 00:00:00;20.0;0;0.0806;0
1995-05-20 00:00:00;18.0;0;0.0675;0
1995-05-21 00:00:00;17.0;0;0.0612;0
1995-05-22 00:00:00;16.0;0;0.0597;0
1995-05-23 00:00:00;16.0;0;0.0598;0
1995-05-24 00:00:00;15.0;0;0.0569;0
1995-05-25 00:00:00;15.0;0;0.0557;0
1995-05-26 00:00:00;14.0;0;0.0515;0
1995-05-27 00:00:00;17.0;0;0.0805;0
1995-05-28 00:00:00;16.0;0;0.0705;0
1995-05-29 00:00:00;15.0;0;0.0701;0
1995-05-30 00:00:00;15.0;0;0.0726;0
1995-05-31 00:00:00;14.0;0;0.0626;0
1995-06-01 00:00:00;22.0;0;0.1387;0
1995-06-02 00:00:00;21.0;0;0.1308;0
1995-06-03 00:00:00;18.0;0;0.0989;0
1995-06-04 00:00:00;20.0;0;0.1212;0
1995-06-05 00:00:00;22.0;0;0.142;0
1995-06-06 00:00:00;19.0;0;0.1174;0
1995-06-07 00:00:00;23.0;0;0.1574;0
1995-06-08 00:00:00;25.0;0;0.1825;0
1995-06-09 00:00:00;22.0;0;0.145;0
1995-06-10 00:00:00;19.0;0;0.1156;0
1995-06-11 00:00:00;18.0;0;0.1042;0
1995-06-12 00:00:00;16.0;0;0.0888;0
1995-06-13 00:00:00;17.0;0;0.0922;0
1995-06-14 00:00:00;22.0;0;0.137;0
1995-06-15 00:00:00;21.0;0;0.1226;0
1995-06-16 00:00:00;19.0;0;0.0968;0
1995-06-17 00:00:00;20.0;0;0.1061;0
1995-06-18 00:00:00;21.0;0;0.1124;0
1995-06-19 00:00:00;18.0;0;0.0824;0
1995-06-20 00:00:00;16.0;0;0.0663;0
1995-06-21 00:00:00;17.0;0;0.0717;0
1995-06-22 00:00:00;16.0;0;0.0648;0
1995-06-23 00:00:00;15.0;0;0.0594;0
1995-06-24 00:00:00;15.0;0;0.0552;0
1995-06-25 00:00:00;15.0;0;0.0591;0
1995-06-26 00:00:00;15.0;0;0.0555;0
1995-06-27 00:00:00;14.0;0;0.0481;0
1995-06-28 00:00:00;13.0;0;0.0432;0
1995-06-29 00:00:00;11.0;0;0.0355;0
1995-06-30 00:00:00;12.0;0;0.0385;0
1995-07-01 00:00:00;11.0;0;0.0355;0
1995-07-02 00:00:00;11.0;0;0.0342;0
1995-07-03 00:00:00;15.0;0;0.0572;0
1995-07-04 00:00:00;16.0;0;0.0662;0
1995-07-05 00:00:00;14.0;0;0.0539;0
1995-07-06 00:00:00;13.0;0;0.048;0
1995-07-07 00:00:00;12.0;0;0.038;0
1995-07-08 00:00:00;12.0;0;0.0382;0
1995-07-09 00:00:00;12.0;0;0.0382;0
1995-07-10 00:00:00;26.0;0;0.1548;0
1995-07-11 00:00:00;19.0;0;0.0893;0
1995-07-12 00:00:00;20.0;0;0.1119;0
1995-07-13 00:00:00;28.0;0;0.1746;0
1995-07-14 00:00:00;20.0;0;0.1025;0
1995-07-15 00:00:00;19.0;0;0.0931;0
1995-07-16 00:00:00;20.0;0;0.099;0
1995-07-17 00:00:00;15.0;0;0.0615;0
1995-07-18 00:00:00;16.0;0;0.0677;0
1995-07-19 00:00:00;15.0;0;0.0615;0
1995-07-20 00:00:00;14.0;0;0.0522;0
1995-07-21 00:00:00;13.0;0;0.0483;0
1995-07-22 00:00:00;20.0;0;0.1041;0
1995-07-23 00:00:00;13.0;0;0.0474;0
1995-07-24 00:00:00;12.0;0;0.0394;0
1995-07-25 00:00:00;11.0;0;0.0348;0
1995-07-26 00:00:00;10.0;0;0.0302;0
1995-07-27 00:00:00;10.0;0;0.0286;0
1995-07-28 00:00:00;10.0;0;0.0284;0
1995-07-29 00:00:00;11.0;0;0.0318;0
1995-07-30 00:00:00;11.0;0;0.0314;0
1995-07-31 00:00:00;10.0;0;0.0255;0
1995-08-01 00:00:00;10.0;0;0.0269;0
1995-08-02 00:00:00;10.0;0;0.0248;0
1995-08-03 00:00:00;9.0;0;0.0237;0
1995-08-04 00:00:00;9.0;0;0.0214;0
1995-08-05 00:00:00;10.0;0;0.0239;0
1995-08-06 00:00:00;9.0;0;0.0228;0
1995-08-07 00:00:00;9.0;0;0.0204;0
1995-08-08 00:00:00;9.0;0;0.0189;0
1995-08-09 00:00:00;8.0;0;0.0155;0
1995-08-10 00:00:00;8.0;0;0.0144;0
1995-08-11 00:00:00;8.0;0;0.0147;0
1995-08-12 00:00:00;7.0;0;0.0112;0
1995-08-13 00:00:00;7.0;0;0.0109;0
1995-08-14 00:00:00;7.0;0;0.0106;0
1995-08-15 00:00:00;6.0;0;0.0079;0
1995-08-16 00:00:00;7.0;0;0.0094;0
1995-08-17 00:00:00;6.0;0;0.0073;0
1995-08-18 00:00:00;6.0;0;0.0059;0
1995-08-19 00:00:00;6.0;0;0.0056;0
1995-08-20 00:00:00;6.0;0;0.0049;0
1995-08-21 00:00:00;6.0;0;0.004;0
1995-08-22 00:00:00;7.0;0;0.0042;0
1995-08-23 00:00:00;8.0;0;0.0064;0
1995-08-24 00:00:00;7.0;0;0.0039;0
1995-08-25 00:00:00;9.0;0;0.0066;0
1995-08-26 00:00:00;15.0;0;0.0188;0
1995-08-27 00:00:00;16.0;0;0.024;0
1995-08-28 00:00:00;17.0;0;0.0288;0
1995-08-29 00:00:00;10.0;0;0.0119;0
1995-08-30 00:00:00;8.0;0;0.0087;0
1995-08-31 00:00:00;9.0;0;0.0118;0
1995-09-01 00:00:00;9.0;0;0.0129;0
1995-09-02 00:00:00;9.0;0;0.0142;0
1995-09-03 00:00:00;9.0;0;0.016;0
1995-09-04 00:00:00;20.0;0;0.0841;0
1995-09-05 00:00:00;23.0;0;0.1016;0
1995-09-06 00:00:00;13.0;0;0.0389;0
1995-09-07 00:00:00;11.0;0;0.0278;0
1995-09-08 00:00:00;12.0;0;0.0291;0
1995-09-09 00:00:00;19.0;0;0.0655;0
1995-09-10 00:00:00;16.0;0;0.0458;0
1995-09-11 00:00:00;12.0;0;0.0252;0
1995-09-12 00:00:00;12.0;0;0.0235;0
1995-09-13 00:00:00;12.0;0;0.0259;0
1995-09-14 00:00:00;18.0;0;0.0474;0
1995-09-15 00:00:00;16.0;0;0.0377;0
1995-09-16 00:00:00;12.0;0;0.0244;0
1995-09-17 00:00:00;12.0;0;0.0221;0
1995-09-18 00:00:00;11.0;0;0.0189;0
1995-09-19 00:00:00;12.0;0;0.0215;0
1995-09-20 00:00:00;12.0;0;0.0225;0
1995-09-21 00:00:00;12.0;0;0.0214;0
1995-09-22 00:00:00;11.0;0;0.0205;0
1995-09-23 00:00:00;12.0;0;0.0216;0
1995-09-24 00:00:00;12.0;0;0.0239;0
1995-09-25 00:00:00;12.0;0;0.0241;0
1995-09-26 00:00:00;17.0;0;0.0454;0
1995-09-27 00:00:00;23.0;0;0.0719;0
1995-09-28 00:00:00;26.0;0;0.0908;0
1995-09-29 00:00:00;33.0;0;0.1335;0
1995-09-30 00:00:00;35.0;0;0.146;0
1995-10-01 00:00:00;32.0;0;0.1294;0
1995-10-02 00:00:00;30.0;0;0.1226;0
1995-10-03 00:00:00;28.0;0;0.1198;0
1995-10-04 00:00:00;27.0;0;0.1167;0
1995-10-05 00:00:00;25.0;0;0.1126;0
1995-10-06 00:00:00;23.0;0;0.1061;0
1995-10-07 00:00:00;22.0;0;0.0984;0
1995-10-08 00:00:00;20.0;0;0.0907;0
1995-10-09 00:00:00;19.0;0;0.0807;0
1995-10-10 00:00:00;17.0;0;0.0717;0
1995-10-11 00:00:00;16.0;0;0.0609;0
1995-10-12 00:00:00;14.0;0;0.052;0
1995-10-13 00:00:00;14.0;0;0.0494;0
1995-10-14 00:00:00;13.0;0;0.0434;0
1995-10-15 00:00:00;13.0;0;0.0419;0
1995-10-16 00:00:00;14.0;0;0.0452;0
1995-10-17 00:00:00;14.0;0;0.0444;0
1995-10-18 00:00:00;13.0;0;0.0429;0
1995-10-19 00:00:00;11.0;0;0.0305;0
1995-10-20 00:00:00;16.0;0;0.0592;0
1995-10-21 00:00:00;12.0;0;0.031;0
1995-10-22 00:00:00;12.0;0;0.03;0
1995-10-23 00:00:00;11.0;0;0.0249;0
1995-10-24 00:00:00;12.0;0;0.0285;0
1995-10-25 00:00:00;11.0;0;0.0254;0
1995-10-26 00:00:00;14.0;0;0.0362;0
1995-10-27 00:00:00;17.0;0;0.0544;0
1995-10-28 00:00:00;16.0;0;0.0476;0
1995-10-29 00:00:00;13.0;0;0.0317;0
1995-10-30 00:00:00;14.0;0;0.0345;0
1995-10-31 00:00:00;16.0;0;0.0429;0
1995-11-01 00:00:00;19.0;0;0.0569;0
1995-11-02 00:00:00;20.0;0;0.0635;0
1995-11-03 00:00:00;21.0;0;0.0691;0
1995-11-04 00:00:00;16.0;0;0.0421;0
1995-11-05 00:00:00;14.0;0;0.036;0
1995-11-06 00:00:00;17.0;0;0.0518;0
1995-11-07 00:00:00;19.0;0;0.0602;0
1995-11-08 00:00:00;19.0;0;0.0626;0
1995-11-09 00:00:00;21.0;0;0.0709;0
1995-11-10 00:00:00;21.0;0;0.0691;0
1995-11-11 00:00:00;19.0;0;0.0609;0
1995-11-12 00:00:00;18.0;0;0.0564;0
1995-11-13 00:00:00;17.0;0;0.0528;0
1995-11-14 00:00:00;18.0;0;0.0586;0
1995-11-15 00:00:00;21.0;0;0.0714;0
1995-11-16 00:00:00;20.0;0;0.0682;0
1995-11-17 00:00:00;19.0;0;0.0622;0
1995-11-18 00:00:00;16.0;0;0.0502;0
1995-11-19 00:00:00;24.0;0;0.0918;0
1995-11-20 00:00:00;21.0;0;0.0753;0
1995-11-21 00:00:00;19.0;0;0.0625;0
1995-11-22 00:00:00;19.0;0;0.063;0
1995-11-23 00:00:00;18.0;0;0.0614;0
1995-11-24 00:00:00;18.0;0;0.0611;0
1995-11-25 00:00:00;17.0;0;0.0571;0
1995-11-26 00:00:00;16.0;0;0.0532;0
1995-11-27 00:00:00;16.0;0;0.0513;0
1995-11-28 00:00:00;16.0;0;0.0517;0
1995-11-29 00:00:00;16.0;0;0.052;0
1995-11-30 00:00:00;16.0;0;0.052;0
1995-12-01 00:00:00;16.0;0;0.0517;0
1995-12-02 00:00:00;16.0;0;0.0509;0
1995-12-03 00:00:00;16.0;0;0.0501;0
1995-12-04 00:00:00;16.0;0;0.0494;0
1995-12-05 00:00:00;16.0;0;0.0461;0
1995-12-06 00:00:00;15.0;0;0.041;0
1995-12-07 00:00:00;14.0;0;0.0374;0
1995-12-08 00:00:00;14.0;0;0.0367;0
1995-12-09 00:00:00;14.0;0;0.0372;0
1995-12-10 00:00:00;15.0;0;0.0411;0
1995-12-11 00:00:00;15.0;0;0.0431;0
1995-12-12 00:00:00;15.0;0;0.0435;0
1995-12-13 00:00:00;15.0;0;0.0418;0
1995-12-14 00:00:00;15.0;0;0.0404;0
1995-12-15 00:00:00;14.0;0;0.0374;0
1995-12-16 00:00:00;13.0;0;0.0348;0
1995-12-17 00:00:00;14.0;0;0.0377;0
1995-12-18 00:00:00;14.0;0;0.038;0
1995-12-19 00:00:00;14.0;0;0.0399;0
1995-12-20 00:00:00;15.0;0;0.0435;0
1995-12-21 00:00:00;16.0;0;0.0464;0
1995-12-22 00:00:00;18.0;0;0.0592;0
1995-12-23 00:00:00;28.0;0;0.1254;0
1995-12-24 00:00:00;23.0;0;0.092;0
1995-12-25 00:00:00;17.0;0;0.0549;0
1995-12-26 00:00:00;17.0;0;0.057;0
1995-12-27 00:00:00;15.0;0;0.044;0
1995-12-28 00:00:00;13.0;0;0.0362;0
1995-12-29 00:00:00;13.0;0;0.0358;0
1995-12-30 00:00:00;12.0;0;0.0296;0
1995-12-31 00:00:00;10.0;0;0.0233;0
1996-01-01 00:00:00;9.0;0;0.0203;0
1996-01-02 00:00:00;9.0;0;0.0191;0
1996-01-03 00:00:00;11.0;0;0.0269;0
1996-01-04 00:00:00;11.0;0;0.0285;0
1996-01-05 00:00:00;11.0;0;0.0287;0
1996-01-06 00:00:00;11.0;0;0.0289;0
1996-01-07 00:00:00;11.0;0;0.0298;0
1996-01-08 00:00:00;12.0;0;0.0345;0
1996-01-09 00:00:00;12.0;0;0.0372;0
1996-01-10 00:00:00;13.0;0;0.0414;0
1996-01-11 00:00:00;14.0;0;0.0488;0
1996-01-12 00:00:00;15.0;0;0.0531;0
1996-01-13 00:00:00;15.0;0;0.0527;0
1996-01-14 00:00:00;14.0;0;0.0484;0
1996-01-15 00:00:00;14.0;0;0.048;0
1996-01-16 00:00:00;13.0;0;0.0429;0
1996-01-17 00:00:00;13.0;0;0.0419;0
1996-01-18 00:00:00;13.0;0;0.0428;0
1996-01-19 00:00:00;14.0;0;0.0456;0
1996-01-20 00:00:00;13.0;0;0.042;0
1996-01-21 00:00:00;13.0;0;0.0427;0
1996-01-22 00:00:00;11.0;0;0.03;0
1996-01-23 00:00:00;10.0;0;0.0252;0
1996-01-24 00:00:00;9.0;0;0.0199;0
1996-01-25 00:00:00;10.0;0;0.0219;0
1996-01-26 00:00:00;10.0;0;0.023;0
1996-01-27 00:00:00;9.0;0;0.0188;0
1996-01-28 00:00:00;8.0;0;0.0159;0
1996-01-29 00:00:00;8.0;0;0.0139;0
1996-01-30 00:00:00;8.0;0;0.0117;0
1996-01-31 00:00:00;8.0;0;0.0131;0
1996-02-01 00:00:00;9.0;0;0.015;0
1996-02-02 00:00:00;8.0;0;0.0139;0
1996-02-03 00:00:00;9.0;0;0.017;0
1996-02-04 00:00:00;11.0;0;0.0243;0
1996-02-05 00:00:00;12.0;0;0.0267;0
1996-02-06 00:00:00;13.0;0;0.0289;0
1996-02-07 00:00:00;14.0;0;0.0346;0
1996-02-08 00:00:00;15.0;0;0.0353;0
1996-02-09 00:00:00;14.0;0;0.0313;0
1996-02-10 00:00:00;15.0;0;0.0355;0
1996-02-11 00:00:00;15.0;0;0.0338;0
1996-02-12 00:00:00;16.0;0;0.037;0
1996-02-13 00:00:00;16.0;0;0.0391;0
1996-02-14 00:00:00;15.0;0;0.0332;0
1996-02-15 00:00:00;15.0;0;0.0337;0
1996-02-16 00:00:00;42.0;0;0.1686;0
1996-02-17 00:00:00;57.0;0;0.2591;0
1996-02-18 00:00:00;45.0;0;0.1806;0
1996-02-19 00:00:00;52.0;0;0.2143;0
1996-02-20 00:00:00;32.0;0;0.1015;0
1996-02-21 00:00:00;28.0;0;0.082;0
1996-02-22 00:00:00;27.0;0;0.0744;0
1996-02-23 00:00:00;25.0;0;0.0648;0
1996-02-24 00:00:00;24.0;0;0.0607;0
1996-02-25 00:00:00;36.0;0;0.1158;0
1996-02-26 00:00:00;48.0;0;0.1668;0
1996-02-27 00:00:00;35.0;0;0.1045;0
1996-02-28 00:00:00;32.0;0;0.0886;0
1996-02-29 00:00:00;30.0;0;0.0796;0
1996-03-01 00:00:00;29.0;0;0.0739;0
1996-03-02 00:00:00;41.0;0;0.1253;0
1996-03-03 00:00:00;27.0;0;0.0637;0
1996-03-04 00:00:00;27.0;0;0.0611;0
1996-03-05 00:00:00;26.0;0;0.0597;0
1996-03-06 00:00:00;25.0;0;0.0583;0
1996-03-07 00:00:00;25.0;0;0.0592;0
1996-03-08 00:00:00;24.0;0;0.0558;0
1996-03-09 00:00:00;24.0;0;0.0569;0
1996-03-10 00:00:00;22.0;0;0.0537;0
1996-03-11 00:00:00;21.0;0;0.0529;0
1996-03-12 00:00:00;20.0;0;0.0508;0
1996-03-13 00:00:00;19.0;0;0.0494;0
1996-03-14 00:00:00;18.0;0;0.0499;0
1996-03-15 00:00:00;18.0;0;0.0513;0
1996-03-16 00:00:00;18.0;0;0.0534;0
1996-03-17 00:00:00;18.0;0;0.0583;0
1996-03-18 00:00:00;18.0;0;0.0599;0
1996-03-19 00:00:00;18.0;0;0.0657;0
1996-03-20 00:00:00;19.0;0;0.0704;0
1996-03-21 00:00:00;18.0;0;0.07;0
1996-03-22 00:00:00;18.0;0;0.0716;0
1996-03-23 00:00:00;19.0;0;0.0812;0
1996-03-24 00:00:00;20.0;0;0.0973;0
1996-03-25 00:00:00;19.0;0;0.0917;0
1996-03-26 00:00:00;18.0;0;0.085;0
1996-03-27 00:00:00;17.0;0;0.0756;0
1996-03-28 00:00:00;18.0;0;0.0826;0
1996-03-29 00:00:00;18.0;0;0.0856;0
1996-03-30 00:00:00;16.0;0;0.0723;0
1996-03-31 00:00:00;16.0;0;0.0693;0
1996-04-01 00:00:00;14.0;0;0.0605;0
1996-04-02 00:00:00;13.0;0;0.0484;0
1996-04-03 00:00:00;11.0;0;0.039;0
1996-04-04 00:00:00;11.0;0;0.0379;0
1996-04-05 00:00:00;11.0;0;0.0397;0
1996-04-06 00:00:00;12.0;0;0.0434;0
1996-04-07 00:00:00;11.0;0;0.0383;0
1996-04-08 00:00:00;11.0;0;0.0365;0
1996-04-09 00:00:00;10.0;0;0.0299;0
1996-04-10 00:00:00;10.0;0;0.0304;0
1996-04-11 00:00:00;12.0;0;0.0412;0
1996-04-12 00:00:00;11.0;0;0.034;0
1996-04-13 00:00:00;11.0;0;0.0334;0
1996-04-14 00:00:00;11.0;0;0.0328;0
1996-04-15 00:00:00;11.0;0;0.032;0
1996-04-16 00:00:00;11.0;0;0.0315;0
1996-04-17 00:00:00;12.0;0;0.0359;0
1996-04-18 00:00:00;12.0;0;0.0347;0
1996-04-19 00:00:00;12.0;0;0.0336;0
1996-04-20 00:00:00;12.0;0;0.0327;0
1996-04-21 00:00:00;12.0;0;0.0317;0
1996-04-22 00:00:00;12.0;0;0.031;0
1996-04-23 00:00:00;12.0;0;0.0304;0
1996-04-24 00:00:00;13.0;0;0.0334;0
1996-04-25 00:00:00;13.0;0;0.0322;0
1996-04-26 00:00:00;11.0;0;0.0234;0
1996-04-27 00:00:00;10.0;0;0.0213;0
1996-04-28 00:00:00;11.0;0;0.0259;0
1996-04-29 00:00:00;11.0;0;0.0241;0
1996-04-30 00:00:00;10.0;0;0.0215;0
1996-05-01 00:00:00;10.0;0;0.0201;0
1996-05-02 00:00:00;11.0;0;0.0234;0
1996-05-03 00:00:00;11.0;0;0.0242;0
1996-05-04 00:00:00;13.0;0;0.0339;0
1996-05-05 00:00:00;15.0;0;0.0432;0
1996-05-06 00:00:00;9.0;0;0.0178;0
1996-05-07 00:00:00;10.0;0;0.0213;0
1996-05-08 00:00:00;10.0;0;0.0213;0
1996-05-09 00:00:00;11.0;0;0.0249;0
1996-05-10 00:00:00;13.0;0;0.035;0
1996-05-11 00:00:00;13.0;0;0.037;0
1996-05-12 00:00:00;12.0;0;0.0329;0
1996-05-13 00:00:00;11.0;0;0.0304;0
1996-05-14 00:00:00;11.0;0;0.0287;0
1996-05-15 00:00:00;12.0;0;0.0324;0
1996-05-16 00:00:00;11.0;0;0.0314;0
1996-05-17 00:00:00;12.0;0;0.0357;0
1996-05-18 00:00:00;14.0;0;0.0461;0
1996-05-19 00:00:00;24.0;0;0.1289;0
1996-05-20 00:00:00;33.0;0;0.1977;0
1996-05-21 00:00:00;19.0;0;0.0865;0
1996-05-22 00:00:00;14.0;0;0.0514;0
1996-05-23 00:00:00;15.0;0;0.0578;0
1996-05-24 00:00:00;19.0;0;0.0873;0
1996-05-25 00:00:00;32.0;0;0.2083;0
1996-05-26 00:00:00;25.0;0;0.1405;0
1996-05-27 00:00:00;26.0;0;0.1557;0
1996-05-28 00:00:00;28.0;0;0.1689;0
1996-05-29 00:00:00;20.0;0;0.0972;0
1996-05-30 00:00:00;19.0;0;0.0945;0
1996-05-31 00:00:00;19.0;0;0.0919;0
1996-06-01 00:00:00;17.0;0;0.0756;0
1996-06-02 00:00:00;15.0;0;0.0578;0
1996-06-03 00:00:00;16.0;0;0.0667;0
1996-06-04 00:00:00;17.0;0;0.0723;0
1996-06-05 00:00:00;18.0;0;0.0839;0
1996-06-06 00:00:00;16.0;0;0.0666;0
1996-06-07 00:00:00;14.0;0;0.0533;0
1996-06-08 00:00:00;18.0;0;0.0849;0
1996-06-09 00:00:00;22.0;0;0.1073;0
1996-06-10 00:00:00;16.0;0;0.0643;0
1996-06-11 00:00:00;15.0;0;0.0507;0
1996-06-12 00:00:00;13.0;0;0.042;0
1996-06-13 00:00:00;12.0;0;0.0364;0
1996-06-14 00:00:00;12.0;0;0.0336;0
1996-06-15 00:00:00;12.0;0;0.0321;0
1996-06-16 00:00:00;12.0;0;0.0311;0
1996-06-17 00:00:00;11.0;0;0.0253;0
1996-06-18 00:00:00;12.0;0;0.0292;0
1996-06-19 00:00:00;15.0;0;0.0426;0
1996-06-20 00:00:00;14.0;0;0.0381;0
1996-06-21 00:00:00;15.0;0;0.0428;0
1996-06-22 00:00:00;13.0;0;0.0319;0
1996-06-23 00:00:00;12.0;0;0.0271;0
1996-06-24 00:00:00;11.0;0;0.0239;0
1996-06-25 00:00:00;10.0;0;0.0204;0
1996-06-26 00:00:00;11.0;0;0.0219;0
1996-06-27 00:00:00;13.0;0;0.0295;0
1996-06-28 00:00:00;11.0;0;0.0236;0
1996-06-29 00:00:00;15.0;0;0.0381;0
1996-06-30 00:00:00;16.0;0;0.0457;0
1996-07-01 00:00:00;16.0;0;0.0444;0
1996-07-02 00:00:00;15.0;0;0.0388;0
1996-07-03 00:00:00;11.0;0;0.0224;0
1996-07-04 00:00:00;15.0;0;0.042;0
1996-07-05 00:00:00;15.0;0;0.041;0
1996-07-06 00:00:00;16.0;0;0.045;0
1996-07-07 00:00:00;14.0;0;0.0383;0
1996-07-08 00:00:00;13.0;0;0.0311;0
1996-07-09 00:00:00;12.0;0;0.0293;0
1996-07-10 00:00:00;11.0;0;0.0263;0
1996-07-11 00:00:00;10.0;0;0.0198;0
1996-07-12 00:00:00;9.0;0;0.0174;0
1996-07-13 00:00:00;9.0;0;0.0161;0
1996-07-14 00:00:00;9.0;0;0.0174;0
1996-07-15 00:00:00;10.0;0;0.0202;0
1996-07-16 00:00:00;10.0;0;0.0218;0
1996-07-17 00:00:00;9.0;0;0.0182;0
1996-07-18 00:00:00;9.0;0;0.017;0
1996-07-19 00:00:00;8.0;0;0.0141;0
1996-07-20 00:00:00;8.0;0;0.0138;0
1996-07-21 00:00:00;7.0;0;0.0104;0
1996-07-22 00:00:00;6.0;0;0.0085;0
1996-07-23 00:00:00;7.0;0;0.0093;0
1996-07-24 00:00:00;10.0;0;0.0252;0
1996-07-25 00:00:00;9.0;0;0.02;0
1996-07-26 00:00:00;8.0;0;0.0138;0
1996-07-27 00:00:00;7.0;0;0.0105;0
1996-07-28 00:00:00;7.0;0;0.0106;0
1996-07-29 00:00:00;6.0;0;0.0082;0
1996-07-30 00:00:00;6.0;0;0.0071;0
1996-07-31 00:00:00;8.0;0;0.0167;0
1996-08-01 00:00:00;11.0;0;0.0308;0
1996-08-02 00:00:00;13.0;0;0.0376;0
1996-08-03 00:00:00;11.0;0;0.028;0
1996-08-04 00:00:00;10.0;0;0.0223;0
1996-08-05 00:00:00;9.0;0;0.0198;0
1996-08-06 00:00:00;8.0;0;0.0145;0
1996-08-07 00:00:00;10.0;0;0.0213;0
1996-08-08 00:00:00;9.0;0;0.0191;0
1996-08-09 00:00:00;9.0;0;0.0182;0
1996-08-10 00:00:00;9.0;0;0.017;0
1996-08-11 00:00:00;8.0;0;0.0148;0
1996-08-12 00:00:00;8.0;0;0.0143;0
1996-08-13 00:00:00;9.0;0;0.0179;0
1996-08-14 00:00:00;10.0;0;0.0175;0
1996-08-15 00:00:00;10.0;0;0.018;0
1996-08-16 00:00:00;10.0;0;0.016;0
1996-08-17 00:00:00;9.0;0;0.013;0
1996-08-18 00:00:00;9.0;0;0.0132;0
1996-08-19 00:00:00;9.0;0;0.0123;0
1996-08-20 00:00:00;10.0;0;0.0125;0
1996-08-21 00:00:00;10.0;0;0.0133;0
1996-08-22 00:00:00;10.0;0;0.0134;0
1996-08-23 00:00:00;10.0;0;0.0124;0
1996-08-24 00:00:00;10.0;0;0.0146;0
1996-08-25 00:00:00;9.0;0;0.0111;0
1996-08-26 00:00:00;11.0;0;0.0167;0
1996-08-27 00:00:00;10.0;0;0.0148;0
1996-08-28 00:00:00;17.0;0;0.0483;0
1996-08-29 00:00:00;22.0;0;0.0673;0
1996-08-30 00:00:00;17.0;0;0.0455;0
1996-08-31 00:00:00;17.0;0;0.0476;0
1996-09-01 00:00:00;12.0;0;0.0284;0
1996-09-02 00:00:00;11.0;0;0.0252;0
1996-09-03 00:00:00;11.0;0;0.0237;0
1996-09-04 00:00:00;10.0;0;0.021;0
1996-09-05 00:00:00;10.0;0;0.0232;0
1996-09-06 00:00:00;11.0;0;0.0244;0
1996-09-07 00:00:00;11.0;0;0.0243;0
1996-09-08 00:00:00;10.0;0;0.0241;0
1996-09-09 00:00:00;11.0;0;0.0268;0
1996-09-10 00:00:00;11.0;0;0.0272;0
1996-09-11 00:00:00;11.0;0;0.026;0
1996-09-12 00:00:00;10.0;0;0.0227;0
1996-09-13 00:00:00;10.0;0;0.0227;0
1996-09-14 00:00:00;10.0;0;0.0227;0
1996-09-15 00:00:00;10.0;0;0.0227;0
1996-09-16 00:00:00;10.0;0;0.0227;0
1996-09-17 00:00:00;10.0;0;0.0227;0
1996-09-18 00:00:00;10.0;0;0.0227;0
1996-09-19 00:00:00;10.0;0;0.0227;0
1996-09-20 00:00:00;10.0;0;0.0227;0
1996-09-21 00:00:00;10.0;0;0.0227;0
1996-09-22 00:00:00;10.0;0;0.0247;0
1996-09-23 00:00:00;11.0;0;0.0274;0
1996-09-24 00:00:00;11.0;0;0.0274;0
1996-09-25 00:00:00;11.0;0;0.0274;0
1996-09-26 00:00:00;11.0;0;0.0274;0
1996-09-27 00:00:00;11.0;0;0.0274;0
1996-09-28 00:00:00;11.0;0;0.0272;0
1996-09-29 00:00:00;11.0;0;0.027;0
1996-09-30 00:00:00;11.0;0;0.027;0
1996-10-01 00:00:00;14.0;0;0.0439;0
1996-10-02 00:00:00;14.0;0;0.0433;0
1996-10-03 00:00:00;12.0;0;0.0332;0
1996-10-04 00:00:00;12.0;0;0.0293;0
1996-10-05 00:00:00;10.0;0;0.0241;0
1996-10-06 00:00:00;10.0;0;0.0221;0
1996-10-07 00:00:00;10.0;0;0.02;0
1996-10-08 00:00:00;9.0;0;0.0165;0
1996-10-09 00:00:00;8.0;0;0.0138;0
1996-10-10 00:00:00;9.0;0;0.0156;0
1996-10-11 00:00:00;8.0;0;0.0148;0
1996-10-12 00:00:00;8.0;0;0.0151;0
1996-10-13 00:00:00;8.0;0;0.0137;0
1996-10-14 00:00:00;8.0;0;0.014;0
1996-10-15 00:00:00;9.0;0;0.0176;0
1996-10-16 00:00:00;20.0;0;0.0768;0
1996-10-17 00:00:00;18.0;0;0.0619;0
1996-10-18 00:00:00;13.0;0;0.0336;0
1996-10-19 00:00:00;12.0;0;0.0316;0
1996-10-20 00:00:00;10.0;0;0.0229;0
1996-10-21 00:00:00;19.0;0;0.0671;0
1996-10-22 00:00:00;14.0;0;0.0406;0
1996-10-23 00:00:00;11.0;0;0.0262;0
1996-10-24 00:00:00;11.0;0;0.0264;0
1996-10-25 00:00:00;10.0;0;0.0216;0
1996-10-26 00:00:00;10.0;0;0.0214;0
1996-10-27 00:00:00;13.0;0;0.0344;0
1996-10-28 00:00:00;21.0;0;0.0829;0
1996-10-29 00:00:00;23.0;0;0.0907;0
1996-10-30 00:00:00;29.0;0;0.1351;0
1996-10-31 00:00:00;20.0;0;0.0751;0
1996-11-01 00:00:00;18.0;0;0.0627;0
1996-11-02 00:00:00;21.0;0;0.0795;0
1996-11-03 00:00:00;25.0;0;0.1081;0
1996-11-04 00:00:00;20.0;0;0.0742;0
1996-11-05 00:00:00;19.0;0;0.069;0
1996-11-06 00:00:00;28.0;0;0.1292;0
1996-11-07 00:00:00;35.0;0;0.1842;0
1996-11-08 00:00:00;27.0;0;0.1211;0
1996-11-09 00:00:00;21.0;0;0.085;0
1996-11-10 00:00:00;22.0;0;0.0893;0
1996-11-11 00:00:00;22.0;0;0.0889;0
1996-11-12 00:00:00;21.0;0;0.0857;0
1996-11-13 00:00:00;21.0;0;0.0857;0
1996-11-14 00:00:00;19.0;0;0.0726;0
1996-11-15 00:00:00;19.0;0;0.0698;0
1996-11-16 00:00:00;17.0;0;0.0641;0
1996-11-17 00:00:00;17.0;0;0.0607;0
1996-11-18 00:00:00;16.0;0;0.0589;0
1996-11-19 00:00:00;23.0;0;0.104;0
1996-11-20 00:00:00;20.0;0;0.083;0
1996-11-21 00:00:00;23.0;0;0.1084;0
1996-11-22 00:00:00;28.0;0;0.1487;0
1996-11-23 00:00:00;27.0;0;0.1379;0
1996-11-24 00:00:00;22.0;0;0.0984;0
1996-11-25 00:00:00;20.0;0;0.0853;0
1996-11-26 00:00:00;21.0;0;0.0949;0
1996-11-27 00:00:00;22.0;0;0.1011;0
1996-11-28 00:00:00;24.0;0;0.1186;0
1996-11-29 00:00:00;24.0;0;0.1265;0
1996-11-30 00:00:00;37.0;0;0.2378;0
1996-12-01 00:00:00;32.0;0;0.197;0
1996-12-02 00:00:00;49.0;0;0.3741;0
1996-12-03 00:00:00;44.0;0;0.3265;0
1996-12-04 00:00:00;47.0;0;0.3609;0
1996-12-05 00:00:00;38.0;0;0.2591;0
1996-12-06 00:00:00;30.0;0;0.188;0
1996-12-07 00:00:00;25.0;0;0.1426;0
1996-12-08 00:00:00;22.0;0;0.1191;0
1996-12-09 00:00:00;21.0;0;0.111;0
1996-12-10 00:00:00;21.0;0;0.1087;0